GFSSW_925_rhum_003.txt.gz
RH
100 97 75 84 96 100 100 94 55 34 34 37 35 34 30 27 26 35 50 17 17 18 16 16 17 20 18 17 15 11 14 17 14 20 13 9 9 6 10 13 17 24 34 39 30
100 100 100 100 100 99 100 75 50 33 35 40 38 36 29 31 40 43 15 20 15 14 15 17 18 16 19 16 15 11 16 12 8 9 10 8 8 7 11 13 17 40 35 34 31
100 100 100 100 99 99 94 73 46 34 38 37 34 36 28 40 68 25 18 17 13 12 13 15 15 16 17 14 12 9 11 7 7 6 7 7 7 7 14 15 15 42 40 37 35
99 97 93 78 74 97 88 76 36 35 38 33 34 34 32 51 39 13 11 12 13 13 12 18 18 12 12 13 8 8 7 7 6 6 6 6 6 5 7 10 12 21 37 37 40
67 59 53 54 54 83 71 54 42 40 35 32 35 32 49 62 32 10 11 12 12 14 21 22 19 12 13 11 7 8 8 7 6 6 9 7 7 7 7 9 10 14 33 39 38
53 54 54 54 55 57 59 49 42 33 29 31 32 40 56 38 13 11 11 10 11 17 18 17 12 10 9 8 8 8 8 7 6 8 8 9 8 10 10 8 8 17 32 33 33
51 52 53 53 49 43 48 45 35 29 27 30 36 48 56 39 14 10 10 9 9 9 11 8 8 12 8 11 8 9 10 10 10 12 12 10 13 13 10 8 8 11 17 30 32
48 50 50 47 42 42 41 31 28 27 28 35 46 58 46 13 10 9 8 8 8 9 9 9 8 11 12 8 7 9 13 17 13 14 13 13 18 13 12 11 12 12 12 12 28
47 44 40 39 36 33 29 27 26 29 32 49 51 62 36 11 9 9 8 9 8 10 8 8 9 11 9 13 15 14 19 19 16 14 16 15 16 14 13 13 14 14 13 13 16
48 45 36 31 30 29 29 28 34 34 43 55 53 44 32 13 10 9 9 9 11 11 12 10 15 16 19 21 24 20 19 20 21 13 10 11 14 15 13 14 16 15 27 31 41
46 46 38 34 33 33 39 43 57 46 60 33 27 28 10 8 8 10 9 9 12 13 20 18 26 26 17 14 13 14 15 21 18 13 13 14 19 19 21 22 26 37 40 39 39
42 43 39 35 34 34 47 71 36 35 30 26 12 11 11 9 12 10 10 14 15 20 18 16 25 16 15 14 16 13 19 26 17 14 13 14 19 22 22 26 28 35 36 38 40
39 42 36 34 34 36 36 41 35 27 28 16 14 13 14 13 16 13 13 16 16 17 24 27 18 14 15 24 24 23 27 26 23 19 16 16 23 25 24 24 24 27 30 34 39
34 46 40 35 39 32 49 34 32 36 36 18 17 13 12 14 17 11 11 15 13 22 24 21 16 19 19 25 25 32 27 25 23 25 29 18 36 27 28 31 30 31 35 37 40
31 34 41 37 40 46 38 36 28 38 64 19 17 12 11 16 18 14 12 17 20 15 23 24 27 29 29 25 23 30 23 25 24 28 26 26 38 28 28 36 35 35 35 40 43
28 31 32 40 47 42 31 25 22 76 64 20 16 20 16 16 16 15 14 15 18 21 24 22 22 24 25 22 20 22 28 31 29 35 57 34 41 53 48 36 36 37 38 39 41
26 32 33 52 57 42 24 41 71 76 23 22 21 19 21 19 21 21 24 30 34 31 33 26 28 23 21 29 25 28 38 70 64 78 66 40 40 61 37 31 35 42 44 44 44
27 37 51 43 40 32 39 64 57 31 24 17 20 21 25 21 22 23 29 34 29 35 36 40 53 28 26 28 28 34 35 68 62 82 57 26 45 45 32 31 32 32 37 40 40
31 42 49 25 23 31 69 92 70 29 17 19 20 26 25 22 25 28 33 31 30 30 38 47 38 26 23 22 27 34 43 24 57 64 68 45 38 32 30 31 30 28 26 40 43
41 43 47 33 19 38 80 80 35 18 16 18 26 24 31 25 27 30 35 32 30 30 27 28 42 25 21 24 26 29 23 53 63 61 61 45 49 61 44 41 30 30 37 38 40
46 52 47 31 20 61 83 63 22 24 28 24 24 20 29 27 27 32 36 35 32 28 31 40 46 33 25 35 38 37 39 36 38 62 74 81 52 39 41 39 40 40 43 47 47
60 62 47 37 51 63 61 41 25 24 24 27 30 26 30 27 37 42 48 41 36 40 36 32 50 65 35 26 24 26 34 42 76 63 83 86 62 40 40 37 37 39 43 45 45
63 73 50 58 68 93 50 28 23 25 23 24 31 30 29 36 44 50 49 46 47 47 50 45 56 74 55 44 34 29 28 47 63 68 58 83 74 38 42 38 35 47 46 47 51
72 71 67 64 63 55 39 33 35 32 30 28 31 26 37 39 38 52 54 45 44 39 54 52 44 52 71 40 34 30 28 32 57 84 70 72 49 38 52 50 54 54 52 55 57
65 68 51 78 66 55 43 40 40 38 28 27 29 32 37 42 45 57 52 48 43 41 42 51 70 61 48 39 35 30 31 31 32 43 59 51 48 57 57 56 55 55 56 56 57
70 64 47 52 37 43 51 34 41 35 35 34 32 35 43 50 43 53 49 48 50 43 45 71 90 74 58 51 51 48 45 42 36 33 34 34 55 51 50 51 56 61 61 59 56
43 42 68 78 50 59 58 32 36 40 33 35 39 57 65 59 60 54 50 48 52 49 78 90 95 89 87 78 84 73 47 46 34 34 32 49 54 58 61 60 72 69 61 60 60

GFSSW_925_rhum_006.txt.gz
RH
100 100 84 100 96 95 93 100 99 97 98 87 81 59 42 31 28 45 51 11 13 15 16 18 19 21 23 22 16 13 19 19 14 18 16 11 11 9 15 25 28 30 43 34 41
100 100 100 100 100 100 100 99 98 97 94 85 65 44 31 31 47 54 9 13 17 21 18 18 18 21 24 20 18 17 17 15 12 13 12 9 8 8 17 39 49 50 40 36 35
100 100 100 100 100 100 100 100 99 99 96 80 55 32 28 41 72 33 11 14 23 17 17 16 16 18 22 17 15 12 12 8 8 10 8 8 8 8 17 32 46 50 44 37 32
99 92 82 87 93 99 100 99 95 95 87 65 37 28 33 58 39 16 14 14 20 17 18 19 22 23 23 21 14 8 8 6 6 7 7 8 8 8 13 14 39 39 37 35 38
64 58 56 60 67 81 85 88 97 93 80 48 30 30 56 65 38 13 11 13 15 18 24 23 23 19 16 13 9 10 8 7 8 10 9 7 6 7 10 16 38 37 38 40 38
55 55 54 58 56 60 63 89 93 73 55 36 30 39 63 42 13 14 12 13 15 16 19 23 20 15 14 14 10 9 8 7 7 10 9 9 9 10 9 17 42 40 43 42 40
51 54 56 56 55 54 56 79 60 54 38 30 36 57 74 43 14 11 11 11 10 14 20 12 16 11 11 12 10 10 9 9 8 11 10 12 13 12 11 15 41 43 43 42 40
50 51 52 53 51 44 40 44 45 38 32 36 48 70 48 10 12 11 9 8 9 10 9 9 9 11 10 8 10 11 15 15 13 14 12 11 16 14 11 11 18 35 40 40 41
50 49 46 45 42 38 36 33 32 32 37 51 62 75 31 16 11 10 9 9 10 10 10 8 10 12 13 14 17 20 17 18 16 16 14 14 17 15 14 12 12 15 31 41 45
50 48 39 36 34 33 30 33 41 40 53 64 61 51 33 25 10 9 8 9 12 14 15 13 23 21 24 21 20 19 20 21 19 16 17 17 18 18 19 32 45 51 51 54 52
48 44 39 33 30 28 32 44 55 48 64 27 28 33 20 16 10 9 9 10 13 15 19 21 24 24 17 17 16 16 19 24 19 15 13 23 31 30 41 47 47 50 56 54 52
45 44 38 34 32 30 36 64 40 36 36 36 36 28 17 10 14 12 11 14 15 19 18 25 24 17 17 22 23 21 25 26 20 17 15 26 31 35 40 44 44 49 53 54 52
41 41 38 36 33 33 35 34 30 39 38 17 18 14 14 14 15 13 14 16 17 19 23 28 20 16 23 27 28 34 30 25 23 20 20 26 32 38 34 36 37 42 49 52 53
38 43 36 38 43 48 38 35 38 44 36 18 17 13 13 15 17 12 12 15 19 27 24 21 22 24 27 27 27 36 27 26 24 27 23 21 44 33 40 42 43 49 54 54 54
33 46 45 43 40 59 41 38 40 44 52 18 18 12 12 16 17 15 13 18 20 16 27 29 29 31 30 25 24 31 24 25 25 31 31 28 44 38 38 44 46 51 53 58 56
31 36 45 46 51 45 37 30 36 74 50 22 19 19 16 17 18 15 15 22 20 24 25 25 23 24 24 25 22 22 28 40 39 44 58 38 49 52 49 42 43 46 50 52 56
30 38 39 52 55 41 27 38 67 67 29 22 22 22 20 22 22 23 30 33 37 36 34 31 30 25 25 31 29 31 48 69 63 73 65 43 59 54 40 37 45 52 51 50 53
34 36 54 54 45 29 36 56 54 38 28 19 22 25 24 24 31 30 31 37 31 36 41 44 53 30 25 27 29 32 43 67 64 72 54 41 56 48 39 44 43 41 47 47 49
34 46 55 30 30 24 66 85 68 45 21 22 24 30 27 24 29 32 33 33 31 32 40 46 40 27 23 23 30 34 38 34 59 68 64 56 42 34 34 35 32 32 38 48 52
37 51 44 32 23 33 80 80 51 26 23 22 29 29 31 27 29 36 36 34 35 33 30 33 41 27 22 29 30 24 27 52 65 56 64 54 52 56 47 42 40 50 55 56 56
52 48 39 36 19 62 79 73 35 25 30 22 27 26 30 31 32 39 42 38 40 36 34 42 41 37 36 36 37 40 41 45 50 67 72 79 58 44 49 47 53 55 54 56 59
64 61 57 46 35 76 63 47 27 25 25 29 31 33 29 35 51 54 53 47 48 44 35 40 52 64 36 27 26 28 37 49 70 58 86 85 61 37 45 47 50 51 53 54 58
72 76 62 52 49 80 58 36 26 26 26 27 32 34 34 41 57 54 53 49 46 46 47 40 55 71 58 50 39 34 33 56 62 68 58 77 60 42 49 49 51 57 59 63 63
76 74 67 76 67 55 48 35 36 32 32 32 31 35 38 43 54 56 55 48 38 38 53 52 61 53 71 48 41 30 30 49 54 78 67 70 45 57 62 64 64 66 68 67 62
77 62 50 74 65 57 47 39 38 36 30 30 31 35 40 47 54 62 54 49 42 40 47 56 62 56 43 45 40 35 37 38 41 51 60 52 56 66 65 67 66 66 64 60 60
67 66 64 49 45 50 58 48 44 37 34 34 34 43 47 55 50 62 54 52 50 44 62 76 75 73 49 63 68 48 47 48 44 36 40 65 73 60 61 69 71 66 64 63 59
47 58 60 82 54 58 64 43 47 42 33 37 54 64 66 58 60 58 57 60 54 56 81 87 91 78 72 88 79 63 43 46 39 52 39 55 69 66 73 76 74 68 63 62 56

GFSSW_925_rhum_009.txt.gz
RH
100 100 100 100 100 100 100 100 100 100 100 100 100 81 43 33 33 53 71 15 11 12 17 17 15 22 24 25 19 16 24 22 16 25 30 25 14 14 24 45 37 39 45 60 87
100 100 100 100 100 100 100 100 100 99 99 100 96 59 37 43 66 71 8 10 10 14 18 19 21 25 28 24 21 22 26 20 13 18 19 11 21 24 35 45 54 49 44 65 76
100 100 100 100 100 100 100 99 99 99 100 100 80 42 36 69 83 34 9 9 11 21 19 19 17 20 24 20 18 16 15 9 8 12 10 10 11 14 44 46 52 49 50 57 70
100 86 94 99 100 100 100 99 99 99 100 89 53 39 44 80 32 18 17 12 14 22 20 19 20 23 25 24 19 14 11 8 8 10 8 9 9 18 17 38 46 39 42 46 50
78 79 69 88 92 91 100 100 99 100 97 48 45 38 68 70 40 15 14 16 17 20 21 24 26 23 18 16 16 10 8 7 11 9 8 7 8 10 11 28 44 38 36 40 41
62 74 62 76 78 77 100 100 100 100 58 41 43 45 65 34 14 16 14 14 17 21 25 24 21 22 18 15 10 11 8 8 10 11 9 8 10 10 13 50 47 40 37 36 36
62 57 65 63 61 84 97 99 99 62 43 43 46 64 72 31 14 13 13 13 13 16 22 21 20 19 15 16 10 10 10 9 8 11 10 12 13 12 16 48 48 43 41 43 39
54 53 53 56 56 71 68 85 66 45 41 46 58 71 43 12 14 12 12 10 11 15 15 11 14 17 10 11 14 13 15 15 12 13 14 11 14 13 19 52 53 51 48 49 48
50 52 51 51 52 50 51 66 42 46 58 64 69 77 32 13 15 12 10 10 11 12 13 10 13 15 15 15 17 20 18 16 16 16 15 14 18 17 15 38 37 52 60 54 60
50 51 49 42 43 42 48 49 60 68 70 75 72 53 28 17 12 10 9 9 12 14 15 18 24 20 24 16 15 16 18 18 18 16 18 16 25 38 46 49 64 70 63 64 69
50 52 44 36 35 39 48 58 59 56 78 27 26 34 29 20 11 10 10 11 15 20 23 22 24 21 19 18 17 16 20 21 22 16 33 40 49 60 58 62 67 63 63 63 65
48 50 40 34 39 44 56 68 40 41 49 41 40 36 26 20 13 12 12 15 17 21 18 25 24 19 24 26 21 24 24 26 23 24 35 46 50 51 51 59 64 62 60 60 59
42 47 40 36 43 51 42 33 40 33 47 23 31 26 16 14 14 13 14 17 17 19 22 26 20 18 24 30 30 34 28 25 26 31 34 39 47 43 40 49 55 61 62 58 59
43 44 40 36 54 42 41 32 47 44 37 22 16 12 14 16 16 13 13 16 21 27 25 26 30 26 28 28 30 34 28 25 28 36 44 32 64 41 46 56 60 62 63 64 58
40 44 38 41 49 65 45 41 44 40 48 18 18 13 14 19 17 14 16 19 21 23 26 31 29 31 29 26 26 31 26 26 26 34 34 36 54 49 48 60 62 62 61 58 56
38 49 41 42 49 44 43 39 35 71 46 24 18 18 16 18 18 18 24 26 23 29 29 28 25 25 26 25 25 24 34 44 50 47 58 39 52 56 56 53 56 53 56 56 62
36 39 42 55 58 49 37 36 61 74 29 25 24 21 21 23 27 28 31 34 36 36 40 33 32 29 26 30 28 35 45 65 60 72 67 47 55 59 44 44 49 54 58 60 64
36 37 40 52 52 41 32 46 55 40 34 21 24 25 26 28 32 32 32 36 32 37 44 46 53 30 26 28 31 36 44 68 58 75 53 46 58 52 44 48 47 49 53 56 63
42 44 61 38 40 35 61 78 65 50 24 26 28 30 29 28 30 35 37 35 34 34 42 45 40 29 24 24 31 34 43 39 69 72 68 62 45 39 44 52 46 50 53 62 61
43 56 48 39 28 34 78 78 60 42 24 24 32 31 32 30 34 40 38 38 38 37 34 38 38 30 25 29 30 29 35 51 67 56 65 60 56 63 48 50 44 52 64 66 64
50 43 43 47 21 54 72 73 54 26 28 22 29 31 30 32 37 42 45 43 46 42 38 43 38 37 34 37 38 41 41 51 58 70 71 81 69 47 50 49 60 68 66 64 67
55 43 67 38 41 82 61 56 43 25 28 32 34 29 33 42 53 52 52 48 50 44 36 43 53 65 38 34 34 31 40 47 65 58 87 84 62 44 54 57 59 62 65 68 66
70 84 67 30 54 81 52 50 31 27 30 30 32 35 38 53 58 56 54 47 40 44 45 40 57 71 60 50 38 35 42 57 60 70 73 73 56 50 52 57 57 67 68 69 66
71 81 69 76 59 39 42 42 37 33 33 32 34 38 42 55 60 61 57 49 38 41 59 55 62 52 67 50 44 32 35 50 50 73 64 70 47 64 66 68 71 73 72 70 66
76 60 57 81 75 70 50 44 39 36 32 32 32 37 43 54 57 64 56 49 42 46 61 55 55 55 52 57 43 39 35 50 55 53 60 52 57 58 72 75 76 73 71 66 63
81 66 66 49 48 58 63 51 42 37 34 36 41 47 42 56 50 65 54 48 45 61 72 68 78 68 58 68 69 46 41 46 47 43 54 61 72 65 67 75 74 71 68 66 57
62 69 59 85 65 65 71 48 46 41 48 45 53 58 57 60 59 66 64 63 58 61 80 81 92 63 51 84 70 50 51 48 41 48 53 77 66 72 80 76 77 74 69 65 57

GFSSW_925_rhum_015.txt.gz
RH
100 100 100 100 99 99 98 100 100 100 98 98 100 100 100 100 74 73 78 15 15 16 20 22 19 21 25 25 20 18 19 31 35 35 48 38 29 28 38 44 44 45 66 75 98
100 100 100 100 99 99 98 98 98 99 98 100 100 100 100 98 84 89 13 15 16 19 18 17 21 27 26 25 22 20 22 20 22 31 36 33 27 33 45 46 50 83 90 92 99
100 100 100 99 98 99 99 98 98 98 98 100 100 100 100 93 84 33 20 13 16 18 16 18 21 24 26 23 22 22 20 17 14 27 26 25 25 31 44 47 44 71 91 87 92
100 100 100 100 100 99 100 100 98 98 100 100 99 100 100 96 28 18 19 7 13 16 19 21 22 24 26 24 20 17 17 11 9 25 27 26 20 38 38 34 38 65 84 87 85
99 100 94 100 100 100 100 100 99 99 99 100 99 99 86 77 48 18 17 10 16 23 21 23 24 24 26 25 20 19 16 11 10 17 17 15 21 32 29 43 49 71 80 84 88
83 100 71 96 100 100 99 100 99 99 99 99 100 99 87 46 18 21 22 19 19 25 25 22 20 20 21 19 19 16 10 10 12 11 10 14 11 18 26 46 60 72 75 75 73
72 96 57 85 88 100 100 100 100 99 99 99 100 97 92 42 18 20 18 21 19 19 27 23 20 21 22 19 13 11 10 11 13 10 10 12 13 18 41 44 59 69 66 64 59
71 88 58 73 80 100 100 100 100 98 100 100 100 98 65 15 17 18 17 22 23 23 21 19 21 22 21 15 16 12 16 13 12 14 15 10 13 33 40 46 51 55 53 52 49
70 65 57 58 86 100 100 100 100 100 100 100 93 95 49 13 16 14 14 13 20 30 24 22 22 26 14 16 16 19 16 17 15 22 15 16 25 46 46 51 54 50 51 49 54
60 53 54 60 98 100 100 100 97 98 95 98 91 70 30 16 19 12 11 12 20 27 23 22 21 20 18 14 17 17 17 17 17 23 32 38 54 56 57 53 58 56 59 60 60
56 54 58 76 99 100 82 86 78 74 99 40 33 30 25 20 16 11 11 14 17 20 22 24 21 19 20 16 13 16 17 18 24 35 49 60 58 59 60 59 60 60 61 62 63
55 56 60 87 99 94 76 88 41 40 55 58 49 44 33 24 20 12 14 19 20 23 22 23 26 22 26 26 24 24 26 33 36 41 46 50 58 58 57 63 62 61 63 62 67
54 56 63 93 99 93 85 60 38 49 55 34 47 37 24 25 19 13 15 18 20 23 24 27 23 24 27 30 32 33 29 31 36 44 43 44 50 59 59 61 63 63 61 63 67
53 52 73 94 77 69 65 28 40 52 39 25 20 17 18 18 18 15 17 19 25 27 33 32 30 26 28 31 30 35 30 38 45 37 38 37 30 55 62 65 64 62 62 62 61
52 53 67 60 72 70 45 60 60 36 52 22 17 14 18 17 17 17 23 20 26 29 28 33 30 30 32 30 30 35 33 33 31 32 34 40 37 48 61 66 63 59 59 58 53
53 55 78 87 63 46 55 60 41 67 54 22 20 18 23 25 26 25 25 26 27 34 33 33 28 29 29 34 31 39 37 40 44 40 41 38 36 43 63 58 57 56 57 55 50
55 53 64 63 66 73 67 39 59 65 32 26 24 20 26 32 32 31 35 38 33 40 43 34 34 29 29 33 33 34 38 48 51 57 47 47 47 36 41 47 49 54 52 53 51
62 60 64 55 53 68 40 42 42 42 43 24 26 26 31 31 34 34 35 38 37 37 42 37 34 29 28 31 34 40 38 55 57 60 49 46 54 37 41 38 44 45 48 54 54
83 97 82 49 44 58 49 68 48 49 33 31 28 34 34 32 34 39 41 38 39 37 39 45 40 29 28 30 32 39 37 42 60 63 56 46 43 38 49 44 50 52 53 54 55
71 78 66 68 70 48 63 54 44 48 33 28 31 33 38 36 38 40 38 42 39 43 38 42 40 34 30 32 36 33 38 43 48 52 50 43 52 41 55 48 50 54 53 55 58
75 76 57 76 52 53 62 49 57 52 39 28 34 36 38 38 41 43 42 45 47 42 40 37 40 40 37 38 39 40 43 52 47 55 43 49 35 45 45 45 48 48 51 57 59
64 57 79 47 52 71 57 55 51 44 34 36 30 34 37 44 49 50 48 44 48 49 41 45 52 54 38 36 40 36 41 42 48 46 66 64 40 38 47 45 49 49 56 58 58
63 88 66 33 62 78 50 47 44 35 34 34 40 39 48 55 52 56 55 46 40 42 48 45 54 60 45 36 36 39 48 48 55 65 68 76 36 44 56 52 48 49 59 63 61
81 89 80 66 56 46 42 42 39 38 36 39 46 47 55 56 62 65 60 48 46 57 75 52 53 49 49 39 44 44 52 46 43 56 55 60 40 37 50 56 59 62 63 60 58
74 76 74 86 64 44 34 43 44 40 35 36 41 42 52 59 59 64 58 50 53 65 64 47 50 54 59 58 51 41 44 49 41 44 50 43 45 36 40 49 57 63 63 61 58
70 71 67 70 64 48 47 52 47 41 42 36 47 49 44 57 47 64 56 50 43 66 61 58 62 58 65 64 60 52 44 44 51 51 44 48 47 39 48 56 65 66 64 62 59
82 56 57 84 79 61 70 55 48 48 53 53 48 54 51 57 61 65 64 66 60 61 67 63 78 54 48 64 52 51 47 43 47 46 44 52 37 58 62 64 59 65 62 61 58

GFSSW_925_rhum_021.txt.gz
RH
86 99 98 96 98 97 93 99 98 98 98 98 98 93 97 100 85 70 44 20 24 19 20 19 17 17 11 9 7 8 11 10 13 30 35 22 24 22 20 28 28 31 34 42 58
74 94 99 98 97 98 86 97 98 98 98 97 96 94 87 99 78 42 25 25 20 17 22 14 14 11 10 9 9 9 9 9 17 29 47 19 19 20 25 24 27 36 38 55 62
70 77 97 100 94 99 84 93 98 98 98 98 96 94 95 94 48 17 20 24 16 16 15 11 10 9 10 9 10 9 12 10 13 24 20 25 22 17 26 30 26 35 41 47 57
69 74 88 95 90 92 87 88 98 99 98 97 94 85 94 80 31 23 20 21 14 20 15 10 9 11 12 11 9 12 10 10 13 17 15 16 16 19 57 76 22 29 41 50 47
71 70 84 87 90 86 87 86 98 98 97 97 99 93 78 44 25 21 9 16 19 26 15 10 11 11 11 9 9 12 10 11 14 15 12 13 15 29 34 22 22 33 43 44 44
69 69 86 78 95 84 91 96 98 98 95 97 100 74 68 37 15 25 23 22 19 18 12 10 10 8 10 10 12 11 11 9 11 14 20 15 14 24 20 19 29 37 37 32 34
64 68 84 77 94 86 89 98 97 94 94 92 93 77 50 27 16 24 20 16 15 13 12 12 11 12 12 14 12 10 11 9 10 14 16 12 12 16 21 21 28 29 28 29 28
64 65 77 69 90 74 80 99 95 95 92 89 84 71 40 20 18 21 22 19 18 17 15 16 15 14 14 13 11 11 11 13 10 13 15 14 15 17 21 21 24 24 27 29 30
62 62 70 66 88 78 96 100 93 90 82 81 82 62 28 19 14 13 16 14 18 19 16 17 17 17 16 19 13 12 13 13 12 11 14 14 14 15 20 19 23 26 29 30 30
63 60 65 63 90 98 97 88 77 77 75 72 61 56 32 14 13 12 13 15 16 19 20 18 18 20 18 16 16 13 11 8 11 13 12 9 13 13 18 19 23 24 28 30 30
63 62 63 63 100 98 88 75 54 53 51 31 23 20 13 13 13 12 11 14 16 18 19 20 20 21 14 13 11 10 10 8 9 11 9 9 13 15 17 19 22 22 25 28 30
63 63 64 79 100 99 92 39 31 42 39 28 21 18 17 16 14 9 9 14 16 19 16 19 19 14 11 11 10 9 10 12 12 12 15 11 13 14 17 18 20 21 23 25 28
62 65 69 84 99 97 62 40 40 42 42 22 19 18 14 16 12 10 9 11 15 19 18 21 19 17 14 12 12 12 11 16 14 15 14 13 16 21 21 20 24 23 22 24 27
62 68 79 93 77 54 47 38 39 42 40 21 20 17 16 14 13 10 9 12 14 16 16 36 19 17 13 14 13 17 16 14 16 18 18 14 18 18 23 25 27 29 28 28 29
64 71 72 59 70 45 45 50 43 58 47 15 14 13 12 13 10 13 12 12 15 17 17 19 18 15 15 18 18 29 17 18 16 17 19 18 16 44 25 25 27 27 29 30 32
65 74 83 97 82 56 54 67 59 67 40 18 14 15 16 13 11 12 11 11 13 14 16 39 17 16 17 19 17 18 20 19 17 14 24 14 18 23 24 20 24 29 32 35 39
66 78 91 80 44 62 72 56 56 49 17 16 15 14 14 14 13 14 14 14 15 21 20 19 17 18 18 20 19 17 19 27 27 29 28 18 19 15 10 18 18 30 35 39 38
71 85 96 75 62 80 71 53 53 22 18 12 12 13 15 13 13 13 13 14 12 17 19 22 28 19 17 19 18 19 17 26 27 26 23 21 20 13 18 15 18 26 32 37 35
90 99 97 84 83 84 56 68 40 16 14 15 14 16 17 15 15 14 14 13 13 14 20 18 23 18 19 18 16 18 24 19 27 31 33 17 11 14 22 22 22 27 31 36 32
82 93 62 70 80 75 55 50 26 18 16 14 17 16 20 18 17 15 18 16 20 21 20 17 23 19 22 20 21 22 18 26 22 32 32 14 14 11 23 22 24 28 31 32 29
64 57 35 67 72 58 55 38 21 20 19 17 15 16 16 18 16 16 16 20 20 22 20 15 18 26 25 24 18 25 23 21 22 29 33 24 16 14 14 19 23 25 27 30 29
61 58 70 75 49 48 46 29 18 22 26 20 20 15 17 16 19 17 15 15 19 20 21 18 19 29 25 22 21 21 22 22 33 27 30 41 23 15 18 18 21 24 25 26 28
59 56 78 58 62 73 35 26 20 24 24 24 19 17 16 17 21 18 18 35 31 27 21 26 22 34 30 27 24 23 20 20 20 33 28 50 23 15 18 19 18 21 23 26 27
46 62 75 64 38 42 38 27 28 24 22 20 17 20 24 25 24 28 28 34 35 27 47 34 24 27 33 26 22 30 22 20 24 35 29 26 16 14 16 16 15 19 20 23 26
39 40 42 72 51 43 31 27 25 28 25 24 27 23 23 27 29 31 29 37 37 59 34 31 35 26 24 25 24 22 19 21 22 21 30 21 14 10 10 11 13 14 20 20 26
42 34 34 43 41 37 36 28 22 23 26 30 25 20 20 26 27 26 30 32 33 38 35 32 37 39 43 28 29 27 22 18 17 18 16 15 16 11 13 12 16 16 21 23 27
50 34 34 54 45 38 36 26 22 24 37 24 22 24 27 32 34 32 30 27 26 36 39 40 51 43 33 33 34 55 37 24 17 16 18 24 17 12 17 19 19 18 22 25 27

GFSSW_925_rhum_024.txt.gz
RH
74 67 78 99 98 98 98 96 91 95 92 91 93 91 85 86 72 64 47 26 26 25 22 23 19 15 14 11 8 6 10 13 11 12 49 63 67 37 23 36 48 58 42 59 73
76 68 73 82 94 100 100 99 91 94 92 93 96 86 81 83 81 44 25 23 25 22 23 18 14 12 14 10 9 9 12 11 15 29 60 54 48 35 23 24 38 43 48 57 68
78 71 69 72 77 91 100 99 89 96 93 93 91 76 67 72 51 20 17 19 22 18 18 13 11 11 12 9 9 9 11 9 17 40 43 38 30 19 36 46 42 85 46 50 58
78 71 65 75 62 70 97 94 86 93 97 91 85 52 57 83 35 22 19 20 21 17 20 17 10 11 12 12 8 11 8 9 16 40 45 59 28 33 40 52 48 50 37 44 52
80 73 66 69 68 72 93 90 87 96 98 88 67 38 75 46 29 18 8 21 15 22 20 12 10 10 13 10 9 10 10 9 16 17 36 30 34 37 38 44 40 50 39 38 41
79 75 64 72 74 81 78 97 87 97 93 85 58 62 73 37 14 22 21 19 16 18 15 9 10 9 10 9 9 9 11 10 14 19 14 21 29 37 42 32 41 43 37 36 32
76 77 65 72 73 72 76 88 81 90 89 63 43 78 46 27 17 20 17 15 15 16 11 10 10 11 11 13 11 12 13 11 11 15 15 22 26 28 25 26 29 29 28 28 27
73 74 66 66 67 61 68 78 74 85 76 39 47 75 43 20 18 17 18 16 15 14 13 13 14 14 15 14 12 13 13 17 11 15 18 18 25 15 20 23 26 26 27 26 25
74 73 66 65 63 56 63 63 70 79 60 55 79 61 32 19 16 13 15 15 14 16 16 14 16 18 17 20 17 16 21 16 12 13 17 18 25 14 15 23 23 24 25 26 28
74 72 66 66 62 61 70 65 82 74 66 69 53 46 34 18 10 11 12 13 16 17 18 18 18 20 20 18 25 22 17 14 13 10 14 15 17 14 14 20 23 24 25 29 30
74 71 66 65 64 74 74 80 63 64 55 29 23 22 12 11 12 12 11 13 15 19 24 19 23 21 24 19 14 14 15 13 10 10 11 12 13 12 14 17 23 26 28 30 30
76 72 66 71 82 97 94 52 32 40 47 30 16 19 16 15 14 10 10 16 19 24 28 19 24 19 17 16 14 12 14 11 9 10 11 9 10 11 13 17 19 21 26 29 30
77 73 65 75 90 95 68 42 35 39 44 22 18 16 15 13 13 11 9 12 20 20 23 28 32 28 17 14 14 13 15 18 12 9 7 21 11 13 12 14 16 18 19 22 26
78 73 67 72 82 62 52 42 38 42 49 23 19 16 14 13 14 9 8 18 22 20 41 38 23 26 16 17 12 20 20 17 20 16 19 19 32 49 36 17 16 18 20 22 23
81 73 65 64 82 44 46 36 46 56 64 17 16 11 12 14 10 11 9 14 19 20 27 42 18 17 17 24 20 29 20 21 16 15 31 32 35 33 36 32 24 24 26 26 26
83 74 76 99 91 62 59 64 57 74 57 19 13 15 14 12 10 9 12 10 17 22 16 18 16 21 26 18 18 20 22 19 14 16 57 27 43 29 32 33 58 23 25 27 29
86 76 80 73 51 46 51 63 63 56 16 18 15 13 14 14 12 11 14 14 15 22 22 21 16 14 20 15 15 14 17 30 57 65 49 16 19 36 25 45 65 62 26 29 34
88 80 82 80 66 65 74 80 59 26 23 10 12 13 16 12 12 12 15 15 12 13 17 23 39 15 14 15 42 37 16 37 81 88 36 20 22 16 20 19 29 27 30 36 40
91 99 97 88 65 83 77 90 48 26 16 15 12 15 15 12 12 13 14 13 11 11 35 49 36 28 16 14 15 17 21 17 36 41 40 21 12 11 17 18 16 29 32 39 39
89 84 74 80 77 82 88 66 36 20 15 12 15 13 17 14 16 14 14 12 13 17 31 73 84 38 19 16 16 18 14 29 24 38 38 20 16 19 23 19 20 26 33 37 36
67 67 43 70 83 76 78 55 35 20 14 16 14 14 14 17 14 14 13 11 18 18 17 19 36 24 22 22 16 23 24 18 17 34 55 50 23 15 16 16 20 23 31 34 36
62 65 56 78 62 47 63 39 31 24 16 20 16 13 15 15 16 15 14 14 13 14 21 16 19 40 21 16 17 18 23 19 58 38 50 61 36 14 16 14 18 20 22 30 32
59 58 73 62 57 68 49 38 28 25 21 24 21 17 13 16 19 16 15 30 26 22 24 22 26 41 27 22 21 23 19 16 22 44 49 70 39 15 15 15 14 18 21 26 30
49 74 98 85 36 46 52 38 32 24 18 19 20 16 16 17 15 19 20 33 30 26 42 34 24 26 43 26 24 30 23 17 20 62 50 42 20 14 15 16 14 18 19 21 28
55 55 62 93 69 46 44 34 31 27 19 19 20 16 22 26 21 26 21 36 34 51 32 28 34 26 22 20 23 26 22 18 20 23 37 31 20 14 12 14 12 14 18 19 19
58 47 50 49 51 50 51 43 29 22 24 26 25 18 21 25 22 26 23 34 34 38 31 29 44 42 46 29 26 28 23 21 18 16 17 16 17 12 12 15 17 16 15 18 20
57 48 45 54 52 53 52 39 31 24 22 19 22 22 23 26 26 32 33 28 25 38 40 42 64 61 49 34 36 49 40 25 20 17 17 25 20 14 14 14 19 19 19 19 22

GFSSW_925_rhum_030.txt.gz
RH
75 75 75 73 69 68 68 55 67 48 43 46 64 84 80 68 45 52 74 12 16 22 18 17 21 21 20 20 19 15 23 25 18 24 54 60 59 55 60 53 88 88 91 96 100
73 73 72 75 70 66 72 63 58 47 46 42 70 86 63 65 70 85 20 20 17 25 24 21 23 23 21 19 19 20 25 20 16 42 54 56 60 54 46 79 86 97 96 97 97
72 72 69 74 70 64 62 55 48 47 48 46 80 83 59 64 85 43 20 19 21 25 26 22 21 20 22 19 20 18 21 16 19 46 45 51 48 49 53 64 76 86 94 92 92
73 72 68 72 68 60 56 66 48 49 53 54 82 65 50 75 36 18 16 16 22 27 24 19 22 25 21 20 16 16 15 14 30 48 48 48 46 35 48 56 68 77 86 85 88
77 74 67 65 67 58 50 59 50 49 58 63 82 57 54 72 58 25 16 18 24 26 22 22 25 24 18 15 15 17 15 17 39 43 44 44 51 43 68 66 67 78 84 86 86
85 76 70 62 64 57 50 55 51 50 62 73 82 57 78 52 28 21 15 16 16 18 23 23 26 20 17 18 19 19 15 32 43 46 43 39 43 40 55 67 70 69 83 86 76
93 81 74 68 63 60 51 56 51 52 53 81 83 72 81 37 25 23 15 10 12 12 19 17 18 20 20 22 21 21 16 27 45 46 45 37 40 38 45 55 64 64 76 79 68
98 89 78 73 65 60 52 57 51 54 46 80 78 79 74 15 32 29 21 17 15 16 17 16 16 20 18 20 24 21 20 23 37 40 38 26 35 37 44 50 59 65 67 80 70
94 96 81 73 66 59 53 56 52 48 50 75 79 83 70 30 30 16 19 19 17 15 16 17 17 23 25 28 33 26 24 21 25 25 28 25 32 38 45 45 50 54 55 60 77
86 98 82 74 68 60 51 52 56 70 69 86 78 66 45 28 23 17 15 17 18 20 23 21 30 31 33 34 34 28 26 23 22 18 23 25 29 40 49 46 49 50 50 46 58
96 99 88 76 70 58 53 51 70 77 77 49 35 40 26 22 17 17 13 16 20 26 33 32 35 37 30 30 24 23 27 30 24 17 24 26 27 45 49 46 49 57 51 46 49
98 100 91 79 73 60 63 79 60 49 67 53 48 42 34 29 25 18 14 20 25 34 35 36 37 27 25 25 29 31 32 32 25 19 24 26 24 34 35 41 45 46 45 45 47
91 97 95 81 71 60 75 60 44 38 70 56 50 47 39 25 25 21 16 22 28 31 35 38 31 28 25 26 30 31 34 32 29 19 15 22 32 26 22 38 41 40 40 41 42
87 98 95 79 61 73 80 64 58 47 82 56 43 37 20 17 24 17 14 20 24 37 38 35 30 27 30 30 31 35 26 27 26 28 24 24 43 37 30 30 43 40 46 44 43
87 100 92 78 73 84 62 59 57 60 66 33 39 21 20 23 19 15 14 21 28 36 34 32 34 28 32 31 28 35 22 23 26 34 33 31 34 33 35 24 37 35 38 45 46
81 100 98 89 78 48 54 56 69 86 84 40 26 26 24 24 21 16 19 18 23 35 34 29 29 28 30 27 27 24 25 36 45 46 55 42 38 40 41 30 23 30 35 38 50
80 97 99 80 65 68 69 71 92 91 38 33 29 25 26 27 25 21 18 24 31 36 41 33 29 24 25 26 26 26 34 49 49 70 60 43 43 38 33 33 32 32 33 43 53
79 94 99 83 60 67 82 94 93 58 55 26 26 26 29 25 25 21 23 25 24 28 38 38 44 36 32 27 31 31 34 59 53 70 53 43 51 39 28 28 31 32 42 56 66
82 100 99 88 75 66 97 97 76 67 32 28 24 30 29 23 21 23 26 26 22 24 30 47 42 42 41 31 31 30 32 34 66 74 73 56 32 28 35 37 37 47 43 62 77
100 100 95 89 82 76 98 76 67 52 36 30 29 27 31 25 25 24 27 24 23 22 35 45 41 43 40 28 28 30 24 36 57 56 58 40 36 43 31 29 37 48 46 65 72
98 94 78 89 77 89 92 74 58 44 46 40 34 30 26 27 26 28 23 19 24 43 40 53 37 42 37 41 35 33 31 30 40 56 57 69 46 26 30 32 44 51 51 66 66
91 94 88 85 85 89 83 63 55 49 43 49 37 40 28 28 28 26 27 20 29 41 37 48 54 71 41 31 33 31 33 42 62 37 76 77 49 28 26 31 43 48 51 62 56
92 87 94 76 85 83 66 62 56 49 48 46 41 32 24 34 32 35 32 36 38 35 38 43 46 62 44 32 30 32 29 33 50 64 58 68 52 25 24 20 28 40 54 56 57
90 94 92 86 58 54 71 73 69 47 52 51 50 42 32 34 34 37 43 37 44 41 50 41 42 42 54 34 33 34 34 36 43 71 61 65 39 31 28 26 22 24 35 55 56
92 74 73 91 88 56 55 59 65 54 50 44 46 48 44 36 42 39 49 43 45 45 35 37 40 36 36 39 36 32 36 34 36 41 50 41 44 32 24 23 26 26 23 42 54
91 77 75 85 68 72 57 55 51 43 45 42 50 45 42 33 35 44 50 49 41 42 35 44 50 46 41 42 36 32 32 34 33 30 40 32 34 33 30 30 34 30 30 32 33
82 81 72 76 76 81 64 53 43 40 46 38 40 42 43 36 37 36 42 47 46 48 54 54 69 66 55 49 37 53 38 32 32 30 29 37 33 33 39 37 33 36 39 38 41

GFSSW_925_rhum_033.txt.gz
RH
68 69 69 65 68 67 58 53 48 45 46 55 76 70 50 58 37 48 69 17 16 16 17 20 24 23 23 22 22 17 29 27 21 23 45 56 56 64 68 85 87 91 88 92 100
70 70 69 65 68 65 58 50 50 47 48 47 69 70 36 55 56 80 24 21 21 26 24 20 25 22 23 20 23 24 28 22 18 29 53 57 57 55 75 89 92 94 94 99 100
78 70 70 65 65 65 56 48 53 51 50 49 64 68 31 46 75 37 26 20 22 26 26 20 20 20 23 20 21 20 24 19 16 41 47 54 60 53 75 83 87 89 90 89 96
83 77 71 67 64 66 60 49 55 53 50 44 57 48 34 68 33 18 24 17 22 27 27 20 22 25 24 22 20 20 18 16 20 51 49 50 46 46 55 60 80 85 87 89 92
90 84 75 70 65 66 65 52 54 54 50 46 55 44 49 53 41 24 18 20 25 30 21 22 25 26 23 17 16 18 16 16 25 49 46 47 46 62 80 79 84 86 82 79 82
85 91 83 74 70 65 63 53 55 54 52 52 60 45 72 26 26 24 19 25 25 24 21 22 25 24 24 21 22 20 24 43 44 47 44 50 56 54 66 88 89 82 78 65 69
84 85 92 78 71 66 61 53 57 56 53 58 70 61 80 25 24 24 23 19 18 15 23 21 20 21 21 23 21 23 26 42 45 46 44 41 44 62 66 82 87 84 78 74 69
94 82 90 84 73 70 61 48 54 57 50 66 68 79 74 16 21 25 28 23 19 16 17 16 18 23 22 22 26 22 22 33 40 44 37 28 42 46 67 76 86 89 87 83 76
88 86 86 91 76 71 59 46 53 56 60 66 74 83 61 26 32 18 22 25 19 18 18 17 19 25 26 29 31 29 24 25 38 36 37 31 35 44 61 69 78 88 91 81 74
88 88 91 96 78 73 55 46 55 76 78 80 78 52 33 24 23 21 19 22 21 21 23 23 33 33 36 33 37 30 29 27 25 19 36 44 32 48 54 67 70 72 79 85 70
87 89 100 99 80 73 52 51 67 74 72 44 28 31 30 27 22 21 18 20 23 26 33 34 37 38 32 31 27 29 33 35 28 23 25 34 30 46 52 54 63 65 67 81 77
87 96 100 99 81 75 60 74 53 58 66 56 52 45 38 37 36 22 17 20 26 32 36 36 38 30 30 28 30 31 33 32 31 23 25 30 27 42 54 50 54 57 58 58 76
88 95 100 99 82 73 69 58 66 64 56 53 55 54 45 38 41 28 19 24 28 34 36 37 29 28 25 25 29 30 33 36 34 24 22 28 29 28 29 43 46 50 47 48 57
82 96 100 99 80 65 80 65 63 65 72 57 59 48 38 26 25 20 17 22 27 36 41 36 32 30 30 31 30 37 29 33 29 28 22 25 38 36 33 41 47 47 56 47 49
68 92 100 98 65 88 69 59 54 67 51 24 48 28 24 23 20 21 16 22 29 38 35 33 38 32 31 28 31 34 30 30 27 35 34 35 36 34 36 37 45 48 48 48 44
63 84 100 100 89 51 54 61 68 74 57 40 36 34 26 24 22 18 21 20 25 35 36 31 31 27 26 26 31 27 27 37 48 46 55 41 39 40 40 32 32 42 41 45 57
72 77 100 95 77 66 54 77 89 89 32 39 34 32 29 31 26 22 22 28 36 39 38 32 29 27 28 26 28 30 35 46 46 66 58 43 43 40 28 31 31 39 40 41 44
78 78 96 99 74 72 81 89 94 64 61 42 29 32 30 29 29 26 25 27 24 31 45 42 39 32 32 28 32 33 33 54 49 65 46 47 57 38 30 32 32 32 36 44 60
77 81 100 98 87 71 95 98 77 63 46 28 28 35 34 28 27 24 28 28 25 29 33 44 38 38 39 31 28 31 36 35 65 75 71 55 42 29 31 33 50 48 50 64 76
85 96 92 98 93 74 95 76 65 55 50 51 36 33 41 33 30 30 32 26 24 27 28 36 35 38 39 33 31 29 32 38 57 50 58 49 40 43 32 28 36 55 50 69 81
91 96 72 95 96 91 90 75 61 44 46 55 43 34 33 32 30 31 28 22 26 36 30 50 34 36 42 40 36 35 34 36 43 59 58 67 50 32 32 29 29 36 46 60 86
84 94 97 93 98 82 79 66 51 47 45 54 52 50 36 33 33 31 29 21 26 44 37 46 49 65 41 34 33 31 31 40 64 43 79 79 53 28 26 30 34 39 42 60 76
88 86 99 79 89 88 68 62 54 46 53 54 54 45 34 36 31 33 33 36 41 37 45 47 50 64 46 37 33 32 36 45 53 65 61 70 51 28 29 24 25 40 43 58 70
94 95 93 91 66 68 72 72 73 54 53 53 56 50 43 35 35 45 45 40 44 40 55 43 46 46 57 42 36 36 35 39 47 73 60 67 41 30 28 31 27 26 35 58 69
93 78 71 94 89 76 61 61 69 62 56 50 58 59 56 51 38 44 49 46 44 44 42 40 42 35 34 30 40 36 36 44 44 44 52 44 50 38 27 26 28 29 25 39 64
91 90 76 82 67 74 68 64 66 59 61 58 47 47 44 58 44 43 49 49 44 41 39 46 51 42 43 42 39 37 36 36 40 36 45 40 39 34 31 33 40 38 37 42 46
84 89 92 71 72 76 68 63 56 54 54 43 46 50 58 52 45 38 45 45 40 47 52 51 66 66 53 50 41 58 43 38 34 36 36 39 34 33 38 39 43 49 46 47 48

GFSSW_925_rhum_036.txt.gz
RH
77 71 71 69 63 64 62 57 48 48 50 46 43 44 38 30 37 47 66 20 16 18 19 23 25 26 24 24 22 21 33 30 22 22 23 58 60 63 80 88 82 89 90 94 100
81 78 72 70 65 65 64 56 48 53 52 48 39 37 30 35 58 75 29 23 14 24 22 21 26 21 22 21 24 28 32 25 21 17 44 61 53 63 82 84 88 95 97 100 100
85 83 79 73 68 63 65 61 51 53 53 49 41 33 29 41 65 32 29 25 23 24 22 20 21 21 23 21 23 24 27 22 18 20 46 62 56 56 88 90 83 92 94 97 99
92 91 86 79 71 65 62 61 54 53 53 50 40 33 30 57 32 19 22 22 24 24 25 20 21 26 25 24 21 22 21 18 17 48 53 53 49 60 62 73 78 82 85 91 91
100 90 92 89 76 69 63 59 56 54 55 51 41 34 42 35 30 29 23 22 25 24 22 23 26 27 24 20 18 20 17 19 26 50 51 49 54 69 96 90 81 85 82 86 86
100 99 87 89 86 72 68 60 54 53 57 54 47 40 58 16 20 30 24 22 22 25 20 22 25 25 25 25 24 21 28 38 49 48 47 64 65 59 86 91 94 92 92 90 88
98 100 94 86 92 78 69 61 54 52 57 59 60 67 74 24 21 33 27 20 20 23 24 22 22 22 22 25 24 25 33 38 46 47 47 47 45 72 91 90 93 90 81 71 84
90 96 100 91 89 86 72 62 52 52 56 65 62 81 67 14 21 19 27 31 24 22 18 16 20 24 24 24 26 22 22 30 40 44 45 37 49 75 91 86 92 90 86 81 75
84 92 99 99 88 93 74 64 47 49 68 73 70 84 45 22 25 19 24 25 21 22 19 18 20 27 27 30 30 32 27 29 43 42 42 36 48 67 85 89 94 92 92 90 88
73 91 92 100 100 96 76 62 50 77 82 83 81 53 24 25 26 24 23 26 22 23 25 25 36 34 38 32 37 32 31 31 29 25 41 46 37 67 79 82 88 91 94 95 88
68 85 90 99 100 98 74 48 58 70 78 49 30 22 24 29 31 23 22 24 24 27 33 36 37 38 33 32 28 31 33 35 32 25 28 42 46 59 74 76 84 90 93 95 82
78 76 89 97 100 98 81 69 52 63 73 55 54 44 36 37 46 29 20 22 29 35 36 37 41 32 31 32 30 31 33 35 31 24 28 33 40 55 66 70 74 77 78 80 81
82 77 91 100 100 94 81 52 63 70 68 46 55 56 47 43 44 39 22 25 28 34 36 40 29 29 26 28 27 32 32 35 35 30 24 29 32 56 48 56 57 64 62 64 73
84 66 90 100 99 81 64 61 66 70 65 51 59 53 46 44 32 27 20 24 30 33 41 38 33 31 31 30 30 34 31 34 36 30 27 28 33 37 45 56 53 52 62 57 60
84 66 88 100 79 86 74 60 70 64 47 27 56 36 39 27 24 24 18 22 32 37 37 38 33 36 33 31 30 34 30 33 30 35 35 36 36 31 40 44 51 48 52 54 53
83 74 77 100 100 69 72 65 72 72 56 29 42 42 31 24 23 22 22 24 27 38 39 34 32 30 29 27 31 28 30 35 46 48 54 39 42 43 48 36 36 41 45 48 50
78 79 80 100 89 82 76 80 97 86 29 36 45 36 30 32 28 24 31 34 36 40 40 32 31 27 28 28 30 31 36 47 44 65 60 43 48 45 30 29 34 36 40 45 48
81 81 77 95 94 77 88 96 97 62 53 44 34 36 32 30 28 28 29 35 29 33 47 44 41 35 30 29 32 32 35 55 43 65 44 46 51 34 29 36 42 39 37 52 57
76 88 92 95 100 82 94 98 75 63 49 36 31 38 35 29 30 27 32 34 32 34 35 45 36 35 37 32 28 34 38 36 66 77 70 54 43 27 31 44 46 41 43 51 55
82 98 84 89 95 81 99 81 66 51 53 53 42 37 45 37 31 34 35 29 26 32 29 38 32 35 34 36 32 30 37 43 56 49 53 50 42 39 31 29 44 46 48 52 66
94 95 65 87 99 99 95 78 60 50 46 57 56 45 39 39 36 38 36 25 26 29 29 41 30 32 42 40 36 38 38 44 46 59 57 64 48 36 31 33 32 34 48 52 70
91 95 82 94 96 83 84 68 55 53 47 54 56 59 43 37 36 35 33 27 28 41 36 41 45 52 38 35 33 35 38 44 65 45 79 77 57 29 29 28 29 33 35 49 66
89 83 99 78 90 84 66 62 60 53 55 58 61 53 42 37 31 36 34 26 43 37 43 47 48 61 46 37 34 36 38 45 55 66 64 71 52 29 33 29 26 30 34 47 69
94 92 95 93 60 67 67 70 65 56 52 50 60 54 46 44 42 36 34 43 51 39 54 40 51 45 50 40 38 37 40 50 48 72 63 66 42 33 31 32 31 30 31 36 64
98 81 76 91 86 75 63 62 69 60 52 58 61 63 51 52 41 45 48 50 43 62 47 38 41 44 37 32 36 36 35 49 46 46 52 46 51 39 37 30 31 31 30 37 60
99 90 84 85 68 76 79 67 68 61 62 57 64 57 62 63 47 43 51 52 46 48 47 47 46 39 46 43 42 42 40 42 47 43 47 44 44 38 34 36 44 37 46 57 62
88 92 90 66 74 79 72 64 61 58 53 54 49 46 62 48 42 43 44 50 50 52 58 52 68 62 51 50 41 59 48 42 41 41 41 49 43 38 38 41 45 50 54 58 63

GFSSW_925_rhum_039.txt.gz
RH
85 84 81 73 69 66 64 65 55 48 52 50 44 33 31 30 25 44 46 24 18 21 24 25 24 27 23 24 21 20 24 24 21 20 19 54 56 66 74 73 76 78 81 88 100
100 91 88 84 75 69 61 62 60 51 51 50 45 32 30 31 47 57 30 25 15 21 20 21 27 20 19 20 22 22 27 22 18 17 28 51 51 59 69 75 76 82 96 100 99
100 100 96 92 85 74 66 60 60 53 51 52 45 33 30 34 56 30 30 32 19 25 20 22 24 22 23 21 22 23 23 21 18 16 37 53 53 52 66 69 68 80 89 90 99
98 93 100 97 95 86 72 65 57 57 51 55 48 34 30 49 32 21 22 23 25 25 22 20 20 25 25 23 21 23 20 19 17 41 52 52 50 67 61 67 71 74 84 92 93
97 99 98 98 91 92 84 69 63 58 53 54 51 36 37 34 18 31 21 24 24 27 19 21 26 26 25 22 20 22 18 20 32 44 46 45 53 64 76 82 76 78 82 86 88
72 95 98 100 88 88 93 77 68 63 55 54 56 40 51 26 21 30 23 24 24 25 21 22 24 24 26 26 23 22 26 41 49 46 46 54 62 55 80 82 83 79 75 75 82
65 82 96 98 99 87 90 89 71 66 56 56 65 60 68 24 21 31 26 24 21 20 22 20 23 23 25 27 24 25 32 36 46 44 48 42 41 61 79 80 84 86 81 83 80
69 72 91 99 100 97 89 92 77 69 58 57 72 74 52 18 23 29 27 27 24 22 19 18 20 24 27 26 23 21 23 26 40 43 46 29 41 65 82 78 78 80 74 73 82
83 73 77 95 99 99 100 94 77 64 67 78 75 82 35 18 24 20 19 28 28 26 21 20 22 28 27 27 27 29 25 32 42 39 45 36 43 56 76 74 70 72 70 74 72
85 79 69 92 96 100 99 95 70 75 85 85 82 58 26 22 26 29 29 29 23 26 27 27 31 30 31 28 31 32 30 30 29 26 40 46 36 66 77 72 65 64 69 73 72
87 84 68 85 92 100 97 79 56 73 87 52 40 31 18 28 35 27 26 27 26 28 34 36 32 33 28 31 26 30 31 32 29 24 34 41 40 57 74 77 75 69 69 73 70
88 87 81 82 94 100 99 75 56 66 68 57 53 46 35 35 42 35 24 25 30 33 38 35 39 31 31 32 32 31 31 31 29 23 28 27 32 43 67 69 64 66 69 69 67
83 87 81 88 98 99 93 80 64 74 76 50 52 53 45 40 43 39 25 27 30 35 38 38 29 31 33 32 33 31 30 33 33 30 26 30 28 39 51 60 59 60 60 62 64
80 84 77 91 94 93 83 71 72 75 64 44 48 50 49 44 38 31 22 24 32 32 39 35 33 32 31 31 29 31 28 32 34 31 27 28 27 28 42 51 54 54 56 57 56
78 81 73 90 96 85 72 74 75 71 63 31 61 40 46 31 26 31 21 24 36 38 36 35 34 38 36 32 30 30 33 34 33 33 34 34 28 25 38 42 47 48 48 51 52
75 78 81 76 100 82 80 79 74 80 73 26 47 52 49 30 25 25 25 28 31 40 39 34 32 33 31 28 30 31 32 33 40 40 42 38 33 30 32 30 32 38 43 43 45
72 74 84 85 86 83 85 76 92 92 35 30 50 41 36 34 30 28 34 38 34 41 42 34 34 30 29 30 32 31 34 39 36 50 43 43 42 31 26 28 28 29 34 38 40
70 76 86 77 92 85 79 92 97 62 51 39 38 39 37 31 30 29 36 33 32 30 38 36 38 33 32 29 32 36 33 44 42 48 35 43 40 23 27 27 34 39 36 31 40
74 80 97 79 77 100 95 96 65 66 49 42 34 39 37 31 31 31 37 31 32 34 33 47 38 34 37 32 27 34 36 35 58 70 57 42 34 24 27 30 35 38 40 36 39
83 96 88 78 73 99 99 74 71 49 54 55 42 41 42 37 35 34 39 32 31 34 30 38 37 36 35 36 36 32 33 42 49 54 55 41 39 26 24 26 30 33 35 38 45
90 95 65 74 93 95 90 74 58 51 48 55 62 58 43 41 35 41 36 27 28 32 30 40 31 33 42 39 34 37 38 42 39 48 46 47 35 31 25 25 30 32 33 39 41
90 96 78 77 96 86 88 62 57 49 51 55 58 63 52 43 42 39 36 28 28 32 34 38 44 46 33 35 32 33 37 40 52 46 59 59 40 26 29 27 27 27 30 39 41
97 82 84 76 94 79 68 58 61 53 54 59 60 58 49 43 38 38 38 29 41 34 41 44 43 44 35 35 34 38 38 43 49 55 58 67 41 26 28 27 27 27 25 31 46
96 97 95 89 59 57 74 68 64 59 56 52 58 57 51 50 44 40 40 38 47 36 51 38 49 41 36 34 36 43 42 45 44 57 53 51 37 29 26 29 27 29 30 28 31
97 86 83 94 83 64 60 60 66 65 54 53 63 60 58 54 45 45 44 52 49 65 49 40 44 47 38 33 34 35 40 46 41 44 49 38 41 31 30 29 29 33 33 44 56
99 92 81 77 68 74 68 67 62 58 52 58 59 55 52 62 49 50 54 52 48 58 52 48 45 43 42 45 41 44 40 44 43 44 42 40 40 33 31 31 37 38 51 58 61
92 93 69 74 75 72 66 63 62 59 55 47 55 58 63 49 49 48 42 44 48 53 57 54 65 57 49 49 42 59 48 40 40 42 42 46 35 35 35 39 44 52 53 57 60

GFSSW_925_rhum_042.txt.gz
RH
100 100 97 91 87 80 70 63 58 56 50 48 51 44 34 28 25 63 33 23 21 19 26 27 23 19 17 15 15 13 15 14 15 15 14 29 29 45 47 44 51 58 59 72 99
98 99 100 99 95 91 83 70 63 56 55 50 50 46 33 29 63 37 29 25 14 20 20 17 14 13 12 14 15 16 15 14 12 12 14 19 28 38 49 47 48 70 93 97 97
92 92 90 99 99 95 92 86 71 64 54 51 51 47 32 34 43 22 28 29 17 20 21 19 13 12 13 14 15 16 16 14 13 13 14 23 35 38 40 40 42 59 94 94 90
91 90 90 92 93 100 89 91 86 71 62 57 49 48 30 62 16 20 25 24 20 34 21 19 17 17 17 16 14 18 15 15 14 21 24 34 40 46 43 58 54 66 84 92 91
63 71 90 90 99 94 89 86 92 82 69 62 53 49 46 23 11 26 19 24 28 32 18 16 18 18 16 16 17 19 16 17 23 24 33 36 36 47 67 64 62 72 84 92 91
85 65 62 90 95 98 86 84 88 94 76 68 61 51 47 22 19 31 29 31 27 23 16 17 17 18 19 19 19 18 18 28 31 33 31 34 39 42 63 55 57 62 72 85 90
88 79 66 80 93 95 98 90 88 94 88 75 61 77 48 23 25 39 32 24 24 18 14 16 18 18 19 19 18 18 22 27 30 33 33 32 33 48 54 51 58 56 63 80 79
91 87 76 73 90 95 96 93 92 96 89 67 68 79 35 24 28 37 32 27 25 22 20 19 18 19 21 19 17 18 18 21 20 32 32 33 31 49 48 48 52 52 48 64 82
88 89 83 72 86 93 89 85 89 93 80 73 86 70 26 24 27 20 29 22 26 24 22 19 18 21 20 18 17 18 18 19 20 28 30 30 26 37 48 43 42 45 45 50 70
88 86 87 74 80 91 82 80 83 79 90 93 75 59 29 14 21 29 24 22 20 21 22 22 22 22 18 16 19 18 19 19 21 24 31 29 27 32 43 42 37 39 40 45 56
84 84 87 76 81 94 91 72 53 58 75 44 36 31 12 21 33 26 29 27 21 21 25 25 25 20 15 14 17 19 17 18 18 18 22 21 22 24 38 45 41 37 39 44 41
79 83 84 82 82 99 99 66 56 60 55 39 39 34 32 28 28 24 24 24 25 25 24 28 26 21 23 22 23 23 20 20 21 20 21 16 18 20 30 42 40 37 37 38 39
78 80 84 82 82 96 84 72 72 68 61 42 33 32 30 33 27 19 21 19 22 23 25 25 22 24 24 24 26 24 23 23 23 23 20 22 20 24 29 37 40 39 32 34 36
75 79 84 78 88 79 71 76 75 70 55 30 34 30 35 27 28 18 20 17 22 23 22 24 21 24 24 23 23 24 20 22 25 25 22 22 22 20 22 33 37 35 37 31 34
85 78 77 76 99 75 68 82 82 72 42 23 38 32 33 25 19 22 18 19 21 23 25 24 25 27 24 21 22 22 23 24 25 23 24 22 19 17 22 20 23 29 32 32 27
95 79 77 85 92 84 80 88 74 65 41 22 36 42 42 32 19 19 22 18 17 21 25 20 22 22 21 22 21 24 25 26 28 25 30 22 22 18 16 14 14 18 23 29 31
61 86 80 74 71 80 95 73 63 54 24 20 37 40 33 28 23 22 22 26 24 30 30 25 24 20 23 25 25 24 26 34 33 34 33 28 27 18 15 17 18 18 17 22 27
73 91 80 84 76 97 82 92 56 18 25 26 33 36 34 21 22 22 22 24 20 19 21 27 29 22 21 23 22 24 24 32 37 36 27 31 27 18 17 18 19 22 23 23 21
66 93 86 82 82 100 94 87 32 25 29 28 28 39 35 24 20 25 23 21 20 20 22 25 23 22 23 22 20 27 30 23 34 46 34 22 19 15 17 18 18 20 24 23 22
86 92 87 73 84 97 93 64 28 21 29 34 31 35 39 27 27 25 25 19 20 18 15 24 29 26 30 26 28 26 23 32 29 40 38 25 24 17 16 14 16 15 17 21 25
88 97 72 74 78 98 89 54 31 27 32 42 37 30 34 31 26 25 23 22 19 22 17 19 24 33 32 30 24 30 29 28 26 30 35 35 24 15 15 15 18 17 17 19 22
84 99 75 73 97 90 79 49 32 31 35 40 43 48 39 34 30 26 23 20 18 18 26 21 24 34 25 25 24 19 22 25 33 31 36 43 29 14 15 18 18 17 18 21 25
91 95 77 67 92 92 60 51 36 37 34 44 46 43 43 42 36 26 23 19 20 21 21 26 28 35 30 28 27 25 23 22 28 37 36 51 31 18 19 20 18 19 18 20 24
93 99 99 91 44 57 58 53 47 35 31 38 40 44 47 47 37 33 26 30 28 21 36 31 24 28 31 23 18 29 25 24 28 39 33 36 24 18 17 17 15 17 20 20 20
96 88 83 94 81 48 48 41 45 47 38 37 46 46 46 50 44 40 31 37 37 52 27 27 28 25 20 16 16 17 18 26 28 28 30 27 22 19 15 16 14 22 23 27 31
97 79 70 55 60 58 54 54 41 41 39 39 45 45 44 43 38 42 46 43 29 43 31 27 27 30 30 23 23 22 20 18 23 21 24 24 22 15 16 20 22 25 30 37 43
88 55 50 52 58 62 60 53 47 39 36 28 32 34 47 42 42 45 43 42 36 42 41 38 34 37 32 30 30 46 35 24 23 26 26 27 20 16 19 23 24 29 35 42 47

GFSSW_925_rhum_045.txt.gz
RH
88 96 100 100 96 90 89 88 83 66 60 51 48 46 48 36 24 45 29 23 21 17 23 19 17 14 13 10 10 9 12 12 11 13 13 13 19 23 28 32 36 41 54 68 96
85 86 93 93 98 96 89 86 87 87 67 58 46 39 46 37 62 26 24 24 16 16 20 13 11 11 10 10 10 12 12 12 10 11 12 14 19 25 36 26 32 64 68 80 94
89 87 89 92 90 85 95 86 85 88 85 67 54 40 39 39 37 13 26 24 15 16 17 10 11 9 10 10 11 11 14 11 11 13 14 15 20 26 30 41 88 50 88 85 89
80 71 78 86 91 92 80 80 83 85 90 81 64 42 32 60 17 24 24 22 17 25 17 13 10 12 12 12 11 14 12 11 11 12 16 24 23 30 29 47 51 60 82 87 90
89 84 72 58 82 91 94 88 82 83 89 91 74 54 47 28 16 27 21 20 22 26 17 14 14 14 13 10 12 14 13 14 16 17 22 26 26 37 50 52 61 80 84 87 90
92 88 86 67 68 89 94 95 88 88 89 93 84 60 48 33 15 26 32 29 20 18 16 13 14 13 15 12 13 14 13 19 18 20 22 26 27 32 45 40 56 61 79 87 89
85 90 88 82 68 82 91 94 93 88 92 95 84 64 42 27 17 24 24 19 16 16 13 13 14 15 14 14 12 12 16 18 20 20 22 25 55 30 39 38 40 49 67 69 75
85 84 87 86 74 67 92 92 90 87 88 86 67 60 36 19 16 22 23 17 17 16 15 15 15 16 16 13 13 13 13 27 16 19 21 40 87 32 33 36 38 35 50 61 62
81 85 86 85 81 62 87 85 82 84 85 76 72 54 28 24 18 17 23 16 15 16 16 15 16 16 15 16 15 13 19 25 23 16 26 21 51 31 29 30 36 32 41 54 49
77 80 83 84 84 65 83 71 76 84 82 72 56 49 29 16 11 11 22 18 16 16 18 20 18 18 15 13 17 14 15 15 24 56 18 20 25 27 30 26 32 31 35 48 43
80 76 80 83 84 73 90 52 49 56 51 25 26 20 12 13 23 17 16 19 17 18 23 19 22 22 15 12 11 13 14 17 19 13 15 17 16 26 27 30 27 31 32 39 48
90 79 76 81 82 76 98 43 37 55 49 26 26 24 25 20 22 14 19 20 22 24 19 21 26 15 14 14 14 15 15 14 13 14 16 15 19 13 22 26 26 25 29 30 32
82 86 79 77 81 83 68 44 51 58 47 23 20 23 21 20 23 16 17 18 20 22 19 22 18 17 17 16 18 17 18 21 17 18 15 15 16 14 16 22 24 23 24 28 30
74 89 83 78 77 51 50 46 55 61 44 20 29 24 19 20 25 14 15 16 17 20 18 18 16 19 18 18 16 20 14 17 18 19 22 19 30 33 16 22 26 25 24 24 26
67 67 89 75 78 60 53 59 61 63 35 16 20 22 20 24 14 17 12 15 19 17 17 20 19 21 20 18 16 18 18 19 19 21 20 17 16 22 14 17 20 23 24 21 22
64 73 85 83 76 78 70 71 66 55 38 18 25 32 32 26 16 13 14 14 13 16 16 17 14 15 16 14 16 16 21 20 20 21 31 18 17 28 15 12 10 16 20 21 20
68 75 81 74 63 55 81 80 52 38 15 16 24 27 29 27 21 16 19 20 19 24 24 19 19 16 16 21 18 20 24 33 33 32 33 26 19 17 32 11 12 12 13 17 20
69 77 71 81 66 76 94 92 41 15 17 20 21 27 29 22 23 20 21 22 17 17 20 25 26 19 17 19 21 22 22 32 65 34 27 24 21 17 13 12 12 13 14 14 17
73 79 79 86 73 80 98 89 36 17 10 16 19 30 30 21 20 21 21 19 16 15 21 22 22 13 14 16 17 20 25 19 34 28 30 21 15 12 11 11 12 13 16 17 17
89 71 67 77 77 78 100 83 30 13 10 15 20 23 29 24 21 22 22 16 16 14 13 17 24 16 17 17 17 20 18 29 26 39 45 21 19 17 15 13 12 11 13 15 19
91 92 55 83 81 94 89 62 40 15 12 14 21 18 24 26 20 21 22 16 14 14 14 16 20 21 23 26 24 23 26 23 22 28 41 36 22 16 13 12 13 13 12 13 14
90 97 58 78 98 86 82 50 36 21 18 15 20 21 20 27 23 19 22 17 14 14 20 16 21 31 28 19 17 18 21 22 32 30 29 33 29 14 13 12 13 14 13 13 15
96 86 74 72 95 83 56 48 35 30 23 19 26 29 25 27 34 24 21 20 20 16 19 18 22 34 27 24 21 22 20 18 21 23 32 54 33 14 14 14 13 14 13 13 16
97 98 98 92 53 50 50 47 37 36 28 18 24 25 30 35 28 30 25 22 25 20 34 27 21 27 33 28 21 24 20 18 20 36 33 28 21 16 15 15 12 12 13 14 15
97 92 84 95 81 56 41 33 33 36 31 27 24 27 25 34 30 31 29 30 33 33 26 24 26 22 20 18 17 18 19 18 20 20 28 23 19 16 14 14 11 17 16 15 18
99 61 63 56 69 54 46 40 30 28 26 30 32 28 26 28 26 33 31 32 32 27 29 22 29 24 24 20 17 18 15 14 14 16 17 16 17 13 11 10 12 14 16 18 22
95 44 52 53 67 58 51 40 30 25 24 21 24 27 33 26 34 40 38 40 37 39 36 26 33 31 38 23 22 33 21 16 15 14 17 22 17 14 13 12 14 16 17 24 30

GFSSW_925_rhum_048.txt.gz
RH
85 86 88 89 93 94 93 93 89 84 86 84 59 47 34 28 28 34 34 25 28 20 17 20 18 16 13 12 10 8 13 15 15 17 14 12 14 17 50 30 61 60 77 88 100
88 86 87 88 87 88 83 85 94 89 85 86 82 54 34 32 51 31 20 24 19 15 18 15 12 11 12 11 9 10 14 16 10 10 12 12 14 40 77 47 63 63 56 82 83
84 79 74 77 81 86 86 85 83 86 88 84 86 74 38 39 38 22 22 23 18 12 19 15 9 9 10 9 9 10 13 12 10 12 12 12 16 17 28 60 62 65 89 79 86
89 88 84 71 57 67 84 87 88 86 86 84 86 81 44 52 24 31 24 21 16 17 18 12 10 12 12 12 10 12 10 11 10 12 13 14 21 27 41 75 61 75 81 87 90
84 91 88 84 72 53 69 85 91 92 87 88 86 82 51 30 23 26 20 19 17 22 18 13 13 12 15 12 9 11 10 11 13 15 14 16 34 51 51 66 69 77 80 87 90
85 86 90 88 84 69 60 80 87 91 93 88 84 85 57 40 16 20 29 28 19 19 15 13 12 12 14 14 12 10 12 11 15 15 18 48 67 68 52 45 61 66 77 84 87
82 85 83 87 87 79 64 63 83 89 89 86 80 82 52 39 16 14 22 24 17 14 13 12 11 14 13 16 11 11 12 12 16 17 19 32 45 63 42 36 50 63 70 80 83
78 80 84 85 86 84 76 56 78 80 84 82 81 73 54 23 19 18 18 18 14 12 14 13 13 15 16 14 14 14 12 16 15 21 37 34 61 44 37 34 36 59 64 70 65
84 77 78 83 85 84 79 58 60 66 81 84 78 64 40 22 22 17 16 17 13 14 14 14 14 16 15 18 18 15 17 17 17 19 23 50 79 67 49 30 31 46 51 60 71
72 84 76 78 81 84 79 55 32 80 80 76 58 42 32 21 14 13 14 18 13 14 16 16 16 19 18 17 23 17 15 14 24 24 21 25 57 71 69 27 30 36 48 52 56
76 81 82 75 78 81 82 68 44 67 63 39 27 24 14 17 16 10 12 19 15 16 21 17 23 25 20 16 13 11 13 19 20 19 26 16 18 55 59 39 30 33 43 45 51
67 69 87 81 74 78 82 63 25 44 46 22 23 26 22 20 21 16 10 21 21 23 19 21 27 19 16 14 14 13 14 14 12 16 15 12 15 38 62 43 26 31 38 42 45
74 67 78 84 76 75 69 54 38 42 48 23 14 16 18 18 24 19 14 17 21 22 21 23 20 16 16 17 16 14 15 16 23 17 15 15 15 21 26 21 22 25 29 36 41
66 72 76 86 77 63 46 43 40 49 54 15 11 16 12 16 19 17 13 17 18 21 20 19 15 17 19 16 13 17 13 14 17 18 20 18 28 19 17 31 22 23 28 31 31
76 73 80 83 74 66 68 61 47 61 37 10 12 17 17 20 16 17 14 16 21 18 19 22 18 17 22 17 14 16 17 18 18 19 20 22 28 18 17 23 23 24 25 29 30
76 72 73 80 85 68 67 76 59 63 41 14 24 26 25 22 19 15 18 14 15 17 18 17 13 15 17 15 14 14 17 20 20 22 34 21 20 31 28 32 19 21 23 24 26
75 73 79 68 77 57 60 83 70 47 10 10 21 26 26 29 25 24 21 21 23 27 28 18 16 14 14 17 15 16 22 36 38 39 41 19 22 24 23 23 17 18 21 23 23
80 75 82 71 73 66 83 99 54 19 20 15 13 20 29 27 28 26 21 22 20 18 23 24 28 17 16 18 21 21 22 40 65 69 52 32 26 18 17 13 12 11 12 18 22
80 90 80 75 79 78 96 95 45 24 12 15 15 23 26 25 23 26 22 22 19 19 25 25 23 14 15 15 17 21 27 21 50 47 56 41 29 19 13 11 12 12 13 17 16
98 92 78 67 71 82 99 75 38 20 17 14 16 16 25 26 25 25 26 19 20 17 17 22 29 16 14 14 16 18 17 31 28 52 56 24 19 21 17 13 12 11 15 17 18
98 98 67 65 80 96 96 76 43 25 20 20 18 15 17 20 24 23 23 20 19 18 17 19 24 23 16 19 20 21 24 30 27 29 49 49 31 38 22 13 14 13 14 13 16
93 99 61 70 97 95 79 61 45 29 21 25 21 23 19 20 22 35 22 20 15 16 22 20 27 33 22 16 17 18 22 25 39 39 42 64 38 17 19 14 14 15 14 14 14
97 96 66 73 92 95 68 48 43 38 27 23 26 25 19 23 31 28 29 17 21 18 22 22 27 38 28 27 20 22 20 20 24 28 39 66 41 15 14 14 14 14 15 16 17
98 99 97 90 53 65 63 54 46 37 31 21 24 20 22 28 36 30 32 19 24 20 37 34 26 29 43 35 24 26 22 24 30 49 45 39 29 20 16 19 14 16 15 14 16
98 95 78 95 90 59 53 41 42 41 34 27 24 25 24 48 38 42 32 36 23 27 26 29 37 28 24 20 20 22 22 20 22 21 32 29 24 18 16 19 21 18 16 14 14
100 71 61 51 70 65 60 54 42 33 30 33 33 27 24 34 31 35 35 34 31 26 29 26 36 33 38 23 21 26 26 18 18 17 17 18 20 13 12 14 16 12 12 16 16
96 62 52 58 71 72 66 54 44 34 28 22 26 31 31 28 32 56 38 49 35 34 35 35 42 40 48 28 26 36 27 20 18 15 16 21 18 14 14 14 13 14 14 16 18

GFSSW_925_rhum_051.txt.gz
RH
92 89 85 84 84 85 85 87 87 86 82 75 75 79 77 56 28 28 51 25 26 25 15 16 24 21 21 23 18 16 21 23 19 19 17 16 25 46 44 64 72 62 70 87 92
90 84 76 71 73 76 80 82 85 87 87 77 63 68 73 67 48 54 21 25 24 18 14 17 20 18 20 18 18 18 23 19 14 15 17 16 18 48 55 52 57 63 68 95 96
84 88 88 82 71 57 54 66 80 87 85 88 75 70 62 58 66 28 20 21 22 18 12 16 18 13 16 14 14 15 19 14 13 13 14 17 51 55 70 71 59 70 85 87 95
85 83 87 94 86 76 62 54 68 83 88 90 80 76 62 53 35 26 20 22 21 15 16 18 18 14 19 18 13 16 13 12 13 17 16 46 50 69 73 86 79 91 88 89 94
86 88 88 89 88 87 79 64 55 72 80 89 84 80 73 56 42 24 22 22 20 15 23 20 20 18 19 16 18 15 13 14 13 17 33 44 57 68 63 76 78 80 87 92 93
81 85 88 88 85 89 85 77 59 56 76 88 89 86 82 72 23 24 22 24 20 19 20 21 20 16 19 20 20 16 15 14 13 21 34 44 60 50 64 68 73 72 85 88 92
76 78 82 85 88 86 86 81 71 51 73 84 94 99 82 64 16 21 30 28 23 20 21 16 15 17 20 24 20 19 21 16 14 20 46 46 50 51 63 52 72 83 78 86 89
69 74 77 80 82 83 83 78 69 44 58 81 87 96 90 24 18 31 20 21 22 16 16 14 14 18 19 20 20 22 21 24 16 25 40 38 58 42 49 51 78 80 84 88 89
72 70 74 76 78 79 80 76 38 25 51 70 96 87 77 28 31 20 20 20 20 16 13 13 15 19 22 28 31 27 30 24 18 34 44 50 74 43 52 51 68 78 81 78 83
67 67 72 77 74 75 76 63 8 49 72 94 86 75 56 26 21 20 20 17 20 16 19 20 22 27 29 32 40 31 26 20 30 24 38 62 64 52 53 59 63 69 82 82 85
82 74 66 76 78 72 73 59 64 85 78 72 57 45 23 25 21 17 17 15 22 21 28 25 30 36 31 27 23 22 20 18 17 22 25 53 56 56 59 66 62 63 77 77 74
79 80 70 66 82 77 74 84 61 53 69 48 51 45 33 34 33 20 12 25 32 33 25 28 32 25 22 23 23 23 20 20 21 20 29 48 58 58 62 68 50 58 66 66 68
73 70 75 65 84 74 70 67 28 41 72 48 35 28 25 22 29 28 15 22 30 30 29 32 28 22 23 25 24 21 20 22 24 21 21 21 63 62 52 52 53 50 53 58 67
80 74 74 68 81 71 72 70 65 52 98 40 20 22 18 18 29 20 20 19 26 29 28 29 23 23 22 24 21 22 17 21 25 24 30 21 38 56 50 59 59 42 50 52 68
82 82 80 69 78 79 68 63 68 63 71 15 16 11 14 21 20 21 19 23 25 26 27 30 25 25 26 24 20 21 21 22 25 30 33 29 38 29 46 60 62 46 49 46 62
82 81 81 78 75 79 60 61 72 87 87 20 26 28 24 18 22 19 20 20 20 24 23 24 19 20 22 20 20 19 22 24 26 33 50 32 34 38 33 32 40 35 38 44 46
82 80 86 71 74 67 75 82 93 98 17 11 33 29 31 29 23 24 26 26 31 38 37 27 22 18 17 23 20 22 26 50 70 62 62 36 35 40 30 29 28 30 34 36 42
81 82 86 82 65 68 80 97 97 29 29 17 18 30 36 30 31 29 29 33 26 26 33 38 39 23 18 21 26 28 30 64 73 86 67 44 43 31 24 24 21 22 26 30 35
84 88 95 77 65 72 98 98 59 34 20 14 16 22 36 31 33 32 33 34 29 23 33 35 32 18 16 17 20 27 35 31 63 67 77 56 39 25 22 18 14 15 17 30 32
99 98 88 69 76 81 97 89 59 29 19 19 30 25 26 28 36 37 38 29 29 21 21 29 36 22 18 16 21 22 24 37 56 77 96 48 45 40 33 20 14 13 17 22 28
100 99 87 71 80 97 95 78 52 44 41 30 28 29 30 30 25 25 33 27 25 22 21 23 31 33 26 25 25 29 29 30 42 59 64 59 49 41 25 22 17 17 19 22 27
96 99 83 76 98 88 86 69 54 39 40 43 34 32 36 36 36 34 31 34 23 23 26 23 36 42 30 22 17 22 28 33 66 53 64 76 57 26 25 22 23 19 18 19 30
98 97 76 76 96 95 71 68 65 59 46 39 36 32 30 36 43 34 43 33 37 25 28 26 39 44 42 29 22 23 24 27 37 53 70 78 64 26 25 22 15 20 19 22 19
98 99 96 94 67 70 74 74 74 52 57 48 42 37 37 38 33 38 41 40 45 26 46 28 36 41 44 39 34 36 31 27 36 61 56 68 44 34 28 25 17 18 18 22 23
99 98 85 96 95 76 66 58 67 69 44 40 46 45 40 40 39 39 46 53 55 47 30 34 40 32 34 27 28 30 31 28 31 39 56 45 37 31 26 25 24 23 20 18 22
100 95 77 68 72 86 74 70 63 50 46 46 48 42 39 38 36 42 66 64 76 58 43 38 49 38 40 32 31 29 24 30 32 30 35 34 35 28 21 23 24 21 22 21 19
92 80 67 70 85 89 84 72 62 55 48 38 40 44 47 39 29 51 76 74 70 81 76 54 54 56 53 36 35 48 39 29 32 29 26 33 27 21 20 21 22 25 21 22 22